ECMWFFLT2_700_spd_057.txt.gz
Wind_Speed
2 5 10 16 17 12 8 11 17 21 19 15 13 13 17 16 7 6 13 16 16 18 21 18 17 20 21 22 25 27 26 25 27 29 32 31 27 25 25 25 25 27 28 28 30 31 32 32 31 30 30 27 26 27 26 26 25 25 26 25 25 26 26
5 2 1 13 15 8 7 10 12 12 15 18 15 8 7 8 3 3 12 18 17 13 16 19 21 23 23 23 24 26 26 26 29 32 33 30 27 26 23 24 26 26 26 26 28 31 31 30 29 29 29 25 24 26 25 25 25 25 26 26 25 26 27
6 2 2 6 9 6 7 11 12 9 7 10 12 8 3 3 1 3 10 16 19 16 11 17 23 25 24 23 25 28 28 26 28 33 35 30 28 27 23 24 28 26 25 26 27 28 29 29 29 29 28 25 24 25 25 24 25 25 25 25 25 25 27
4 3 3 1 2 5 7 12 14 13 9 8 10 9 7 4 1 2 7 9 14 18 15 14 19 23 27 26 25 30 31 29 29 31 34 32 30 29 25 22 25 25 24 26 26 27 28 28 29 30 29 27 25 25 25 25 25 26 27 27 26 26 26
7 4 2 8 13 11 13 15 15 13 10 12 12 11 13 10 4 3 3 4 13 19 13 11 13 11 24 29 22 27 31 30 32 31 31 34 33 30 25 21 22 23 22 25 27 27 29 28 28 30 30 28 26 25 25 26 27 29 30 29 28 27 26
18 15 13 13 16 16 16 16 17 14 13 15 11 8 13 14 7 3 4 5 16 19 11 13 21 21 14 28 20 19 26 27 31 30 28 32 32 27 24 22 21 21 21 23 27 28 30 30 30 31 31 29 27 27 26 27 28 30 31 30 28 27 27
22 22 18 13 11 14 16 16 17 16 17 20 13 6 9 14 12 11 6 6 14 19 12 21 27 28 12 21 19 13 21 25 28 28 24 25 27 24 21 23 24 22 21 22 27 30 30 30 31 30 31 30 29 28 27 27 29 30 30 30 28 27 28
25 27 24 20 18 16 17 17 15 16 18 20 16 12 14 17 17 10 5 3 14 20 12 21 26 25 11 10 14 13 19 21 22 27 28 23 23 24 24 28 27 24 21 23 26 29 29 30 31 30 31 31 30 29 28 27 28 29 29 29 28 27 27
17 19 17 15 15 12 13 15 17 16 17 21 17 16 16 15 11 4 5 4 16 18 15 23 22 18 8 6 9 8 10 14 16 26 35 31 25 25 26 29 30 25 22 24 27 27 28 30 31 30 30 31 31 30 28 27 27 28 29 29 28 26 26
7 8 7 7 11 13 12 15 21 19 16 21 17 14 12 13 16 12 6 9 22 21 16 19 25 20 6 7 13 15 12 14 18 23 32 31 26 26 25 26 29 26 23 25 26 26 26 28 29 30 30 31 31 29 28 28 28 28 29 29 29 27 25
14 17 15 12 16 22 20 18 20 22 18 16 14 12 11 14 22 19 8 11 25 23 17 18 23 20 8 6 12 16 16 16 17 19 21 22 27 33 33 31 28 23 23 25 26 26 25 26 26 26 28 31 30 29 28 29 28 28 29 29 28 28 26
20 22 24 24 23 25 25 23 22 23 21 18 16 15 14 15 19 19 14 15 25 27 24 22 23 17 9 6 9 14 18 18 16 18 17 21 34 40 40 42 37 28 25 25 24 25 26 26 23 22 26 30 30 28 27 29 30 29 29 29 28 28 27
20 20 22 26 28 27 25 25 25 24 23 22 20 17 16 16 17 20 20 20 22 25 24 22 19 15 9 5 9 11 16 19 18 20 19 24 34 37 36 42 42 35 32 30 25 24 25 25 23 21 23 27 29 29 28 29 30 29 29 30 29 29 28
21 21 20 21 25 27 26 26 26 25 24 23 21 20 19 19 21 23 22 21 21 22 23 22 19 17 14 7 1 8 14 18 20 21 20 20 24 26 27 33 40 41 41 40 36 32 30 28 25 22 23 26 27 27 28 30 31 29 29 30 29 28 27
20 21 20 19 21 23 26 28 29 26 23 22 22 22 21 20 22 25 24 23 22 22 24 26 23 19 16 13 9 5 11 15 19 23 24 24 23 21 21 27 39 46 46 44 42 38 35 34 31 28 28 29 29 27 26 27 30 30 29 30 30 29 26
21 20 17 17 19 22 26 29 31 29 26 25 24 23 21 18 19 23 25 22 17 13 18 21 18 18 19 18 16 11 8 10 14 20 24 26 25 22 20 23 33 43 47 46 43 40 39 37 34 33 31 31 32 32 29 28 31 34 34 33 32 31 29
22 20 15 18 19 19 21 23 25 27 25 25 25 25 23 20 18 21 21 17 10 10 15 15 10 13 19 20 19 17 13 7 8 14 18 20 21 20 19 20 26 35 41 45 44 42 42 40 37 36 34 32 31 32 32 31 33 36 39 39 39 37 33
23 20 16 17 15 12 14 14 16 18 17 17 18 19 19 18 16 18 17 13 14 17 18 16 12 14 18 18 17 18 19 16 10 11 14 14 15 15 15 16 19 20 25 36 44 44 43 42 39 36 34 32 33 33 32 31 32 34 37 39 41 40 37
22 20 15 10 9 15 18 16 17 19 17 17 18 18 19 19 18 20 20 18 20 21 19 17 18 22 24 21 19 18 21 24 20 12 12 11 10 11 11 13 14 10 9 19 32 39 43 42 40 37 35 35 37 37 32 30 31 32 32 33 34 35 36
19 17 11 7 11 19 19 17 22 25 22 22 23 20 19 19 19 22 25 23 23 22 19 17 16 19 23 24 23 21 21 25 26 20 15 11 8 8 8 9 11 10 9 9 13 23 34 39 38 38 39 39 40 38 34 32 30 28 28 29 30 32 34
21 17 14 15 19 22 21 21 24 23 20 20 21 20 19 18 19 22 24 26 28 26 23 21 19 17 18 22 23 23 23 25 29 28 22 17 12 9 9 9 9 8 8 9 9 12 20 28 32 35 37 39 39 38 36 35 33 30 29 29 30 33 34
24 20 15 13 12 14 19 21 21 21 21 18 16 19 23 23 24 24 23 25 29 29 28 28 26 22 21 23 25 25 25 25 27 30 31 27 22 17 14 13 11 8 6 7 9 12 15 19 23 27 31 34 37 38 37 36 34 33 34 32 32 34 36
20 18 15 12 10 13 17 18 18 20 21 17 13 16 21 24 26 26 26 26 28 30 31 32 32 28 25 28 31 30 29 28 26 28 33 34 30 24 20 18 16 13 10 7 8 12 15 17 20 24 28 31 34 37 38 37 35 35 37 36 34 35 37
24 22 19 17 15 15 16 19 20 19 17 15 11 9 12 18 20 21 23 25 25 27 29 31 34 32 29 31 34 33 33 33 30 29 32 34 32 28 25 23 21 18 14 10 9 11 14 17 19 23 27 30 33 36 37 38 37 37 36 35 34 35 37
29 26 24 21 19 18 19 19 18 16 14 13 12 12 16 19 18 17 19 21 21 22 24 27 31 31 29 31 34 34 34 35 35 35 35 35 33 31 29 27 25 23 18 14 12 12 15 18 20 22 25 29 34 37 38 39 40 38 35 33 35 37 39
24 25 23 20 19 21 22 18 14 12 11 12 15 19 22 22 21 21 22 22 21 20 20 23 27 30 30 30 33 34 36 36 36 36 37 37 36 34 32 30 28 26 24 19 16 15 16 19 22 24 26 29 33 37 40 40 40 39 37 36 37 39 41
13 17 17 13 13 18 20 18 16 14 14 15 18 20 20 20 23 24 25 25 24 21 21 21 23 28 32 33 34 36 38 38 37 35 36 39 40 38 35 33 31 29 28 24 20 18 18 20 23 25 28 29 31 36 39 39 38 39 40 40 40 41 43
6 9 12 10 11 14 15 15 15 15 16 18 21 21 20 22 24 24 25 27 25 23 23 22 21 23 29 33 36 38 40 41 40 37 35 36 38 39 37 34 33 33 31 29 26 23 21 22 24 27 29 30 32 35 36 37 38 40 41 41 40 40 42
9 11 12 12 14 16 15 15 17 18 19 20 22 23 24 25 26 25 26 27 26 25 25 24 23 23 25 29 34 37 39 42 42 40 36 33 34 38 39 36 35 34 33 32 31 27 24 24 26 28 29 31 33 34 34 36 39 41 42 42 40 39 40
13 15 15 16 17 17 16 17 20 22 22 23 25 26 27 28 28 28 27 27 27 26 26 27 27 25 24 26 29 32 35 39 41 40 36 31 30 35 38 38 37 35 34 33 33 31 28 27 28 29 30 31 32 33 33 35 38 40 42 42 41 39 38
15 15 15 17 18 17 17 19 22 24 26 27 27 28 30 31 32 32 31 30 28 27 28 30 30 28 26 26 26 27 30 34 38 38 34 29 29 32 35 36 36 35 34 34 35 34 32 30 29 31 32 31 32 33 34 36 37 39 41 42 41 40 38
15 16 17 20 20 20 20 21 22 24 27 28 28 29 31 32 33 34 33 31 29 28 29 31 31 30 29 27 26 26 27 30 33 33 30 28 29 31 33 34 34 33 32 33 35 35 35 33 32 32 33 32 32 32 34 36 38 39 41 43 43 42 41
17 15 17 20 20 20 20 21 22 23 26 28 28 30 31 33 34 34 33 31 30 29 29 31 32 31 30 28 26 25 26 28 31 30 29 29 30 31 32 32 32 31 31 33 35 36 36 36 34 34 35 34 33 33 35 37 39 40 43 46 46 44 43
17 15 17 19 19 18 19 21 22 23 24 27 28 30 31 33 35 35 34 32 30 29 29 30 31 31 30 28 26 25 25 28 29 29 29 30 30 30 31 31 29 29 30 32 34 36 36 37 37 36 36 36 35 34 35 37 40 42 44 48 49 46 44
18 16 17 18 18 18 19 20 21 22 23 26 28 29 30 32 33 36 37 35 32 29 29 29 30 31 30 28 26 25 25 27 28 28 30 32 30 28 29 30 28 27 29 30 33 36 37 37 37 37 38 39 38 36 36 39 42 42 44 47 49 48 46
17 17 17 18 17 17 18 19 20 21 22 25 27 28 30 30 31 33 35 35 33 31 29 28 28 30 30 28 26 25 25 25 27 28 30 32 30 26 26 28 27 26 26 27 30 34 36 38 39 38 39 40 39 37 38 40 41 42 44 47 48 48 49
16 17 19 19 18 17 18 19 20 21 23 25 27 29 30 30 29 29 30 31 32 31 29 28 28 28 29 27 26 25 24 24 25 27 30 31 28 25 25 26 26 25 25 24 26 30 33 35 37 39 40 40 39 39 39 41 41 41 43 45 46 46 48

ECMWFFLT2_700_spd_060.txt.gz
Wind_Speed
4 11 12 9 9 7 6 8 11 14 14 13 9 7 9 6 1 3 8 8 9 11 12 12 15 20 24 28 29 29 29 28 26 25 26 29 32 33 31 30 30 31 32 33 32 30 29 29 28 28 28 29 30 30 29 28 28 29 29 29 27 26 25
7 8 14 9 7 8 5 3 5 11 15 17 12 5 3 2 2 3 6 6 8 10 10 11 13 16 21 27 31 32 30 29 30 29 25 26 30 31 31 30 29 30 32 32 31 30 29 28 27 26 27 27 28 30 30 29 30 30 29 29 28 27 26
8 6 17 14 9 11 6 6 3 5 6 9 9 5 2 2 2 2 5 7 7 7 11 17 17 14 12 17 22 29 34 33 31 30 26 25 29 32 33 33 32 31 32 31 30 30 29 28 26 25 26 26 28 29 30 31 31 29 29 29 28 28 27
5 8 10 6 5 10 9 5 6 7 4 1 0 4 4 3 3 2 2 5 5 17 20 19 16 13 12 12 15 20 31 36 33 29 25 23 27 33 34 34 33 30 29 29 28 27 27 26 26 25 25 26 26 27 30 31 31 30 30 30 29 29 28
1 5 7 13 11 3 6 11 12 14 7 2 1 3 4 3 4 3 3 2 12 20 18 20 17 12 11 14 17 19 28 36 34 29 25 23 23 28 33 35 32 28 28 28 27 27 25 25 25 25 26 26 25 26 28 31 32 32 32 31 30 30 29
10 7 8 11 9 7 10 14 18 19 12 7 3 2 1 2 3 3 7 4 14 16 12 20 21 13 10 12 16 16 25 34 34 30 26 23 21 24 29 33 32 28 27 27 26 26 26 26 27 26 25 26 26 26 27 30 33 33 33 31 30 30 30
20 15 13 13 9 5 4 7 12 14 11 12 9 4 6 7 5 2 6 4 10 13 12 16 18 17 12 4 7 10 19 29 33 33 30 24 20 20 25 29 30 26 25 26 26 26 26 26 26 26 25 25 26 26 26 29 34 34 33 32 30 29 30
26 21 13 12 10 4 2 2 9 11 9 13 10 4 6 7 5 6 4 3 5 11 15 13 13 17 15 7 2 8 16 24 32 37 37 28 20 18 21 25 27 25 24 27 28 27 27 27 26 25 25 24 25 26 26 28 33 34 33 32 32 31 30
19 17 8 7 12 8 4 6 8 8 8 12 8 2 4 4 4 9 6 3 3 13 17 11 9 12 14 14 11 8 14 19 27 36 37 32 26 23 22 23 25 25 25 27 28 27 27 27 27 26 25 25 25 26 26 27 30 32 33 33 34 33 31
5 8 6 9 15 17 15 14 12 10 9 11 9 7 8 5 9 15 10 6 11 16 16 12 8 10 12 16 17 12 13 17 24 33 36 34 34 34 33 32 33 31 27 25 24 24 25 27 26 26 25 25 26 26 26 26 28 30 32 33 34 34 32
6 9 11 14 19 23 23 21 17 13 10 9 10 9 6 8 16 18 11 10 17 19 20 17 12 11 10 11 17 17 14 14 20 30 35 36 37 39 39 40 42 41 36 32 27 24 24 25 24 23 24 25 25 25 25 26 27 28 30 32 34 34 33
10 12 15 16 19 23 25 25 23 18 13 12 13 11 7 10 16 14 10 14 22 21 20 18 16 13 9 5 9 16 19 14 14 23 31 35 38 40 40 41 43 44 43 39 36 33 31 29 26 24 23 23 24 24 25 25 26 26 28 31 33 34 34
11 13 14 16 19 21 23 26 28 26 19 16 17 15 11 9 13 15 16 21 22 18 14 16 19 16 13 10 5 8 16 17 13 18 25 31 36 39 40 42 44 45 44 41 40 40 39 38 37 34 30 28 27 26 26 26 26 26 27 29 32 33 34
12 12 13 14 16 20 23 24 27 29 27 21 20 20 14 10 12 16 17 18 17 13 12 15 16 17 19 17 11 4 1 9 13 16 20 22 29 36 40 43 45 46 44 42 41 42 41 41 42 42 41 39 35 33 30 29 29 28 27 28 31 33 34
13 12 12 12 12 16 21 23 24 28 31 29 26 23 18 15 14 13 14 17 14 7 7 12 13 14 18 18 16 13 10 3 8 15 18 16 19 29 36 41 45 48 47 45 44 44 43 43 43 44 44 44 42 39 36 34 33 32 30 29 30 33 34
14 13 12 12 13 16 21 24 22 21 24 27 25 20 17 19 19 15 16 19 16 7 6 9 12 12 14 17 18 17 15 12 2 9 12 13 13 17 27 36 41 45 48 47 47 47 46 44 44 44 44 43 43 42 40 37 36 34 32 30 30 32 34
13 14 13 14 14 14 17 18 13 9 12 16 18 14 13 17 20 19 18 20 18 12 8 10 14 13 11 13 15 15 16 17 11 5 2 5 6 10 16 27 35 41 45 46 47 49 48 47 45 45 45 44 44 43 42 40 37 35 32 30 29 32 34
13 14 16 14 10 10 15 13 8 8 10 12 13 12 11 13 14 16 17 21 23 18 11 12 16 17 14 14 15 15 15 16 16 16 16 16 10 3 7 11 19 27 34 40 45 47 48 49 48 45 45 45 44 41 38 37 37 36 34 33 31 32 35
14 14 12 7 6 14 17 12 11 14 16 15 16 17 17 15 14 14 17 21 24 20 14 14 16 18 18 17 18 19 19 17 18 22 24 22 17 8 0 1 2 5 9 18 31 40 44 48 50 48 45 44 43 39 35 34 35 35 35 34 32 32 33
15 10 6 6 12 20 18 12 12 15 17 20 21 21 21 20 18 18 20 22 24 23 19 16 15 15 16 18 19 21 22 20 18 21 24 25 21 16 10 6 2 3 5 3 8 21 29 36 45 48 47 44 42 38 36 35 34 34 34 33 31 30 31
15 10 11 16 22 24 23 20 17 16 19 22 22 21 23 24 22 22 24 25 26 27 25 21 19 16 15 17 19 21 23 23 21 21 23 25 27 24 20 16 10 2 3 5 4 4 12 23 36 43 44 43 41 38 36 35 34 33 33 32 30 29 30
13 12 13 13 13 17 23 21 16 16 19 21 21 22 24 27 26 26 27 28 28 29 30 28 26 24 22 21 21 21 22 23 24 24 23 24 28 30 28 25 20 12 6 1 3 4 3 12 26 34 37 38 39 39 38 36 34 34 34 32 30 29 30
13 12 13 12 13 20 24 19 14 15 16 17 18 18 21 27 28 28 30 30 30 31 33 33 31 29 31 31 27 24 24 25 26 28 28 25 25 29 31 31 28 22 16 10 5 4 4 4 12 24 32 36 38 38 38 38 36 35 34 34 32 30 30
16 16 17 18 21 24 23 18 16 16 16 17 16 11 14 23 27 27 28 28 27 28 31 33 31 29 31 35 34 31 29 28 28 30 32 30 27 29 31 32 31 29 23 16 10 8 6 5 5 13 25 35 40 39 38 39 38 36 35 35 35 35 32
15 18 21 23 23 25 23 20 20 19 17 18 18 16 19 23 23 23 24 24 23 24 26 29 30 27 27 30 35 36 35 33 32 31 32 33 33 31 31 31 31 32 30 25 18 13 9 8 6 8 17 28 38 40 39 39 38 38 38 38 39 39 37
10 15 20 22 22 25 25 23 22 21 17 17 21 25 26 26 27 27 27 27 26 25 25 28 29 28 27 26 29 35 38 37 37 35 34 34 35 35 33 31 32 33 34 32 28 22 16 12 9 10 14 20 29 35 38 38 40 40 40 41 42 42 41
7 10 13 13 14 18 22 22 23 23 21 22 25 27 26 26 28 30 30 30 30 28 27 29 30 31 29 26 25 30 35 38 38 38 38 37 37 37 37 35 35 35 35 36 34 29 23 18 13 11 14 18 23 30 35 37 40 40 40 41 42 42 42
7 9 10 10 12 15 18 18 20 21 22 25 27 28 27 28 29 30 31 32 32 30 30 31 32 32 31 29 26 26 31 35 37 38 40 41 40 41 40 39 40 39 37 37 38 34 27 23 19 15 14 17 21 26 31 35 38 40 40 40 41 42 43
12 14 15 16 18 19 19 20 22 22 23 24 26 28 29 30 31 32 33 34 33 32 31 31 33 33 32 31 29 26 27 30 33 36 39 41 42 43 42 42 43 43 41 40 40 38 33 28 25 21 18 18 20 23 28 32 36 39 40 42 44 44 44
16 18 16 17 18 18 20 23 24 24 24 25 27 29 31 32 32 33 34 35 35 35 33 33 33 34 34 33 31 29 27 28 30 33 36 38 40 42 43 43 44 45 45 43 41 42 39 34 30 26 23 22 22 23 26 30 34 37 40 43 45 46 46
18 18 17 18 20 19 19 21 23 25 26 27 28 31 33 34 35 35 36 37 37 37 36 35 35 35 35 35 33 31 29 29 30 32 32 34 37 39 41 42 43 44 45 43 42 43 43 39 35 32 28 25 24 25 27 30 34 36 39 41 44 45 46
18 19 19 20 21 20 19 22 24 26 28 29 30 32 34 35 37 37 38 39 40 40 39 38 37 37 37 36 35 33 31 31 32 32 31 30 32 35 37 39 40 41 43 43 42 44 45 44 40 36 31 29 27 26 28 31 34 37 39 41 43 44 45
21 21 19 20 21 19 18 19 22 23 26 29 31 32 33 34 36 37 38 39 40 41 41 41 40 40 40 39 38 35 33 32 33 34 32 29 29 31 33 35 37 38 40 42 43 44 45 45 43 39 34 32 30 29 28 31 34 37 40 41 42 43 44
23 21 19 20 21 18 15 16 19 22 25 28 30 31 32 34 35 36 37 38 38 39 39 39 40 41 42 42 40 38 35 34 34 35 33 30 28 28 29 31 33 35 37 39 42 43 44 44 43 40 36 35 34 31 29 31 35 38 39 41 42 43 44
24 21 19 20 21 18 15 15 18 20 22 25 26 27 29 31 33 35 36 37 37 37 38 38 39 41 42 43 41 39 36 35 35 35 34 31 28 26 26 29 31 33 35 36 39 41 42 42 43 41 38 37 36 34 31 31 34 37 39 40 41 42 44
24 22 20 20 20 19 18 18 19 20 21 23 25 25 26 29 30 32 34 35 36 38 38 38 38 39 41 43 42 40 37 35 35 35 34 33 29 25 25 27 29 31 33 34 36 38 41 43 44 42 40 40 39 37 34 32 34 37 39 40 41 42 43
24 22 21 21 20 20 20 22 22 22 22 24 26 26 26 27 28 30 31 32 34 36 38 39 38 38 40 42 42 40 37 35 35 35 34 33 31 27 25 26 28 30 32 32 33 36 40 44 46 45 43 43 42 39 37 35 34 36 39 41 42 42 43

ECMWFFLT2_700_spd_063.txt.gz
Wind_Speed
4 6 8 14 15 11 12 16 15 10 8 7 5 3 1 2 4 2 4 5 2 4 6 4 5 6 11 15 20 24 28 31 34 34 33 30 28 27 27 29 28 27 28 29 30 30 30 29 28 27 25 25 26 28 28 27 26 27 27 26 24 23 22
8 8 7 10 14 12 11 11 13 13 10 8 7 4 1 3 2 2 6 12 10 4 4 10 8 5 6 10 17 21 26 30 33 35 36 35 32 28 26 27 28 29 30 29 29 30 30 29 28 26 25 24 25 27 27 27 27 27 28 27 26 24 24
8 10 8 7 10 11 9 8 11 13 9 9 11 6 2 3 2 1 6 13 14 13 16 19 15 11 10 8 11 17 24 28 31 33 34 36 36 34 30 28 29 31 31 30 29 29 29 28 27 26 25 25 25 26 27 28 27 27 26 27 27 26 25
6 6 5 6 6 8 9 8 11 11 6 8 10 7 3 4 3 2 3 6 9 12 14 18 19 18 15 11 11 13 17 22 29 33 32 32 34 34 31 27 27 28 29 29 29 28 28 28 26 26 26 26 25 25 26 27 28 28 27 28 28 28 27
6 9 12 13 9 6 7 9 9 7 6 8 8 5 4 3 3 4 3 3 6 10 11 13 15 17 18 16 14 13 14 17 24 29 29 30 30 30 28 25 23 24 26 28 29 28 28 28 28 27 27 26 25 25 26 27 28 29 29 29 29 29 28
9 12 13 10 9 8 8 11 12 12 8 7 5 4 4 4 2 2 5 5 5 10 10 11 12 13 16 17 15 15 15 16 20 23 25 27 27 27 28 26 23 23 23 25 28 29 29 29 28 28 27 26 26 26 25 26 28 30 30 29 29 29 29
8 8 8 7 8 6 6 12 14 12 10 9 5 2 3 5 4 4 7 9 7 10 9 9 11 11 13 15 16 15 14 15 18 19 21 24 26 27 31 33 30 28 25 25 27 29 29 29 28 26 26 26 26 25 25 26 28 29 30 30 29 30 30
7 9 9 8 9 6 5 8 10 8 8 9 5 4 6 6 7 6 3 6 5 8 9 8 9 10 9 11 15 15 13 13 15 16 18 23 26 27 31 35 34 33 32 31 31 31 30 29 27 26 25 24 24 25 24 25 27 28 29 29 30 31 31
8 10 9 7 9 6 4 6 8 7 6 4 5 6 4 4 6 7 1 2 1 5 10 8 6 7 6 8 13 15 15 12 10 12 13 19 25 27 30 34 34 33 34 36 36 36 34 31 28 26 24 24 24 24 24 24 25 26 27 28 30 31 31
4 4 2 2 5 5 5 6 5 4 5 3 4 4 3 1 4 5 3 3 5 7 9 8 5 4 4 5 8 11 14 14 9 7 7 14 22 26 28 33 35 33 33 35 37 39 40 38 35 32 28 25 24 24 23 24 24 25 25 27 29 31 32
4 3 2 4 8 12 13 12 9 5 4 4 2 2 2 4 8 5 6 9 9 10 11 11 9 6 4 3 4 7 11 12 9 7 4 5 16 24 28 31 34 34 33 34 36 38 40 40 41 40 37 32 29 27 25 24 25 25 25 25 27 31 33
2 3 5 6 9 12 13 14 14 11 9 6 5 2 1 6 8 3 3 9 10 10 13 14 12 10 7 5 4 5 7 9 9 9 8 2 9 19 25 30 33 33 32 33 35 37 38 39 40 41 41 40 38 34 30 28 27 26 26 26 26 29 32
1 4 6 7 9 10 12 13 13 13 13 12 11 8 7 7 8 7 6 8 10 10 13 15 15 14 11 9 7 5 5 7 8 7 9 7 4 11 16 22 28 31 32 32 34 36 38 39 40 40 41 41 42 40 35 33 32 30 29 28 27 28 31
4 5 6 8 9 11 12 12 12 13 14 15 16 15 13 12 11 12 10 10 11 12 13 13 14 14 13 13 13 10 7 6 7 6 7 9 3 6 10 14 20 28 31 32 33 35 37 38 39 40 41 42 43 42 39 38 37 35 33 31 29 29 30
5 5 7 8 10 12 13 13 13 13 13 13 15 17 17 18 17 16 14 13 12 11 12 13 13 14 13 13 14 14 13 10 9 8 7 9 7 2 6 9 14 22 28 31 33 34 36 38 39 39 40 41 41 41 41 40 39 38 36 33 31 30 29
7 8 10 11 13 16 16 12 9 10 10 8 8 11 14 18 19 20 19 18 14 12 12 13 13 13 12 11 12 14 15 14 12 13 12 9 8 6 2 2 8 16 24 28 31 33 35 37 38 39 39 40 40 40 40 40 39 39 37 34 31 30 29
11 13 13 15 16 15 10 4 1 2 4 5 6 7 8 11 16 20 21 21 18 15 14 14 14 13 12 12 12 12 13 13 14 17 18 14 11 10 8 6 4 8 17 24 27 31 34 34 36 39 40 40 39 39 39 38 38 38 37 34 32 29 29
13 16 17 17 14 10 5 3 3 6 7 8 10 10 9 9 12 15 18 20 19 15 14 15 16 17 17 16 16 15 14 14 14 17 20 21 19 16 14 12 9 7 7 15 21 26 30 32 34 37 40 41 41 39 39 38 37 37 36 36 34 31 30
11 15 16 11 6 5 6 8 12 12 11 13 15 15 15 14 14 15 16 17 17 15 15 16 16 16 17 19 20 20 19 17 16 15 18 24 26 24 22 18 13 8 7 7 12 20 25 28 33 35 37 40 42 41 40 39 38 38 37 37 36 34 32
8 9 6 4 6 10 12 12 14 14 14 15 17 18 19 19 19 19 19 19 18 18 17 17 16 15 16 17 18 20 21 21 19 17 16 21 26 29 28 24 17 11 8 8 9 11 14 19 28 33 34 37 41 42 42 41 40 39 38 37 36 35 35
6 7 10 14 17 19 18 17 15 15 16 17 18 21 22 21 22 24 24 24 24 23 21 21 20 18 19 20 18 17 19 20 20 18 17 19 23 27 30 29 24 18 13 10 10 9 9 11 18 25 28 31 37 42 43 42 41 40 38 37 36 35 35
7 8 10 11 11 10 12 13 12 12 15 15 16 21 24 24 24 26 28 27 28 29 27 26 25 23 24 25 23 21 21 21 20 19 17 18 21 23 27 32 33 27 21 18 16 12 9 10 11 14 19 22 27 36 42 43 42 40 39 37 36 35 35
9 10 9 8 7 7 8 9 8 10 12 13 13 17 23 26 25 26 28 28 29 31 31 30 29 28 29 30 28 26 26 26 25 23 21 20 21 22 24 30 36 35 30 26 24 18 13 11 12 12 13 12 16 27 36 41 43 40 38 38 37 36 35
10 12 13 14 14 14 12 10 9 10 11 12 11 10 16 23 24 24 26 26 27 29 30 30 29 28 30 32 30 29 29 30 30 29 28 25 24 24 24 25 30 37 37 31 28 26 21 16 13 12 12 10 14 22 30 36 40 40 39 39 38 37 36
9 12 15 17 18 20 19 18 18 16 14 15 15 16 20 24 24 24 25 25 25 25 26 27 27 26 26 28 29 29 29 30 32 33 32 31 29 28 27 25 26 33 37 35 32 31 29 23 18 14 12 12 14 19 25 32 36 37 39 39 38 38 38
9 11 14 16 18 19 16 14 15 16 16 19 23 26 28 28 28 29 30 29 28 28 28 29 30 30 28 27 28 28 26 26 29 32 34 34 34 33 31 29 27 29 33 35 36 36 34 31 26 22 16 12 12 14 18 26 32 34 35 37 38 38 38
8 10 11 10 11 13 13 12 13 14 17 21 25 27 29 31 33 33 34 34 34 33 32 32 33 34 33 31 29 29 28 26 25 27 30 34 35 36 35 33 32 31 30 32 36 39 39 37 33 29 24 18 13 12 14 21 29 34 35 37 38 39 39
8 10 10 9 12 16 18 18 17 17 19 22 25 26 28 30 33 35 36 37 38 37 36 34 33 34 35 34 32 31 31 30 26 24 25 29 33 35 36 35 36 35 34 33 35 39 42 42 38 33 29 24 19 15 15 17 24 31 35 38 40 40 40
13 14 13 14 17 19 20 20 20 20 22 24 27 28 28 30 32 34 36 37 38 40 40 38 36 35 36 37 36 34 33 33 31 27 24 25 29 32 34 34 35 37 37 37 37 38 40 44 43 37 33 30 25 20 18 17 19 25 32 36 39 41 42
16 16 14 14 16 18 20 21 22 22 22 24 27 29 31 33 34 35 36 38 39 40 41 41 40 39 39 39 39 37 36 35 34 31 28 25 27 30 32 33 34 36 37 38 40 39 38 42 45 41 36 34 31 26 23 20 19 21 26 30 34 38 42
16 16 14 15 19 21 22 23 24 25 25 26 26 28 30 33 35 37 38 39 40 41 41 42 42 40 40 41 41 39 38 37 36 35 32 28 27 29 31 32 33 35 36 37 38 39 37 38 44 45 40 38 36 33 29 25 22 22 24 26 29 33 38
18 17 15 17 21 23 23 23 24 25 27 28 29 29 30 31 34 36 38 40 42 43 43 44 44 43 41 42 43 42 40 39 37 37 36 33 30 29 30 31 32 34 36 36 36 37 36 35 40 45 45 42 41 38 35 30 26 24 25 26 27 29 34
19 17 15 17 22 24 23 22 23 25 27 29 30 30 31 31 32 34 37 39 41 43 44 44 45 44 43 43 45 46 44 42 40 39 38 36 33 30 30 32 33 33 34 36 36 36 35 34 36 41 45 46 44 42 40 37 32 27 26 27 28 29 32
18 15 15 19 24 24 22 21 22 24 26 28 29 30 31 31 31 32 34 36 38 40 42 43 44 44 43 42 44 46 46 45 43 41 40 39 36 32 31 33 34 33 33 35 35 35 34 34 35 38 43 46 46 45 44 42 37 31 28 28 28 29 32
18 15 17 21 24 23 22 22 23 22 23 25 26 27 28 29 30 31 32 33 34 36 37 39 41 42 42 41 42 44 46 46 45 43 43 42 39 35 33 34 35 34 33 34 35 34 34 34 35 36 40 45 47 46 45 45 42 37 33 31 30 29 31
19 17 18 22 24 24 24 24 24 22 22 23 24 25 26 27 28 29 30 30 31 32 33 33 35 38 39 40 41 43 45 45 45 44 44 44 42 38 35 35 36 35 34 34 35 34 34 34 35 35 38 43 47 47 46 46 47 45 40 36 33 29 30
20 19 20 23 24 24 25 26 25 24 23 24 26 25 25 26 27 28 29 29 29 30 31 32 33 34 37 38 39 41 44 45 45 45 44 44 44 41 37 36 36 35 35 35 35 35 34 35 35 35 36 40 44 47 47 47 49 50 46 42 37 31 29

ECMWFFLT2_700_spd_069.txt.gz
Wind_Speed
9 10 13 16 15 14 18 21 21 23 20 11 6 10 12 11 8 5 7 10 13 12 6 6 5 4 1 1 2 4 4 3 3 5 7 8 9 10 10 11 13 14 15 16 16 15 15 14 15 16 18 20 23 25 26 26 25 24 24 22 21 20 19
8 9 10 13 14 14 16 18 21 21 19 15 10 7 8 10 7 4 8 10 10 7 2 3 2 1 1 1 1 1 1 2 3 5 7 8 9 10 9 10 10 11 13 13 12 13 14 14 14 14 15 16 19 22 24 26 26 26 25 24 23 21 20
9 9 9 9 12 16 16 16 21 19 13 15 14 7 6 9 6 4 7 9 7 4 2 5 3 2 2 3 2 1 2 3 3 4 7 8 9 10 10 11 11 11 12 12 11 12 13 14 15 14 14 15 17 18 21 24 26 26 25 25 24 23 21
9 9 9 8 10 14 14 14 21 20 13 15 17 10 7 9 6 4 6 6 5 6 8 7 5 5 5 4 4 3 3 3 4 5 6 8 9 10 11 12 13 13 14 13 12 12 11 13 15 15 15 16 17 17 18 20 23 25 26 27 26 25 23
9 8 9 9 8 11 14 16 21 20 14 16 16 11 9 7 4 5 6 5 5 7 9 3 1 6 7 6 5 4 4 5 6 6 7 8 9 10 11 11 12 13 15 15 14 14 13 14 15 16 16 17 17 18 19 19 20 23 26 28 28 27 26
11 11 12 12 9 9 13 17 20 18 15 17 15 9 9 7 4 6 6 5 7 7 7 5 4 7 7 7 6 5 5 6 7 7 8 9 10 11 11 10 11 11 13 16 16 15 15 15 15 17 18 19 19 20 22 21 20 20 22 25 26 27 26
14 13 12 12 11 9 9 13 18 17 15 18 13 6 8 9 6 8 7 6 7 7 7 6 6 8 7 7 7 6 6 6 7 7 8 9 10 11 11 10 10 10 11 14 15 15 15 15 16 18 19 18 19 23 24 23 22 22 22 23 23 24 25
10 9 9 9 9 9 7 9 13 13 13 16 12 8 13 11 7 9 7 5 7 9 9 7 8 10 9 7 6 7 8 7 7 7 8 8 8 9 10 10 10 10 10 12 14 14 14 15 15 17 18 18 19 22 23 23 23 23 23 23 23 23 23
5 4 4 4 5 7 7 7 9 9 11 13 10 11 15 11 9 12 7 4 9 13 13 10 9 10 10 9 7 7 7 8 8 8 8 8 7 7 7 9 9 9 10 11 12 13 14 14 14 14 14 15 16 17 20 23 22 20 21 22 23 24 23
3 3 4 6 7 7 6 7 7 7 8 10 9 12 12 8 10 13 7 8 15 16 15 11 8 9 10 11 9 6 5 6 9 9 9 8 7 6 5 6 6 7 8 9 10 12 13 15 14 13 12 12 12 12 18 24 22 17 19 22 22 23 24
4 4 6 9 10 8 6 6 6 5 5 7 8 9 8 9 13 11 8 15 21 18 15 13 9 8 9 10 11 8 5 4 6 8 9 9 9 8 7 6 6 6 8 8 9 11 13 15 15 14 13 12 12 13 18 23 23 19 20 23 23 23 23
5 6 7 9 9 8 6 5 4 3 2 4 6 7 9 13 12 9 10 18 21 18 16 13 10 9 7 7 8 8 7 5 5 6 7 8 8 8 7 7 6 5 6 7 8 10 12 14 14 14 14 12 13 14 17 20 23 22 22 24 24 23 23
6 7 8 9 9 8 8 7 5 4 2 3 4 6 11 12 8 9 14 15 15 16 15 12 10 9 7 6 5 6 7 7 5 4 4 3 5 5 4 3 2 2 3 5 7 9 10 11 12 14 15 14 13 14 16 18 21 23 23 23 22 22 23
8 8 8 8 8 8 7 7 7 7 5 4 4 5 8 9 8 10 13 10 12 14 13 11 10 8 7 6 4 4 5 5 4 4 3 1 0 2 3 2 1 1 3 4 6 8 9 10 11 12 14 14 14 14 15 17 20 23 24 23 22 21 22
8 7 6 6 5 5 5 6 7 7 7 6 6 6 7 8 8 8 8 8 10 12 11 9 8 7 7 6 5 5 5 3 3 3 3 2 2 2 2 2 2 0 1 2 4 7 9 11 12 13 13 14 14 15 16 17 19 21 23 23 23 21 22
7 7 5 4 4 3 3 5 7 7 7 7 8 8 8 9 10 9 8 8 9 9 10 9 8 7 7 6 6 6 6 6 4 2 2 2 1 2 2 3 2 1 1 1 3 5 7 10 12 14 15 15 15 15 16 16 17 19 21 22 22 22 22
7 7 5 4 3 2 3 7 8 7 7 8 8 9 8 9 10 10 8 9 10 9 9 10 10 9 8 8 7 8 8 9 8 5 3 2 2 2 2 2 3 3 3 2 2 2 3 6 9 12 14 16 17 17 17 17 17 18 20 21 22 22 22
8 7 6 5 3 3 4 7 9 8 8 8 8 8 8 8 8 9 10 10 10 9 9 10 10 11 11 11 11 11 12 12 12 10 8 6 5 5 4 4 4 5 5 5 4 4 3 4 5 6 8 12 15 17 18 18 18 18 19 21 22 22 22
8 8 7 5 3 5 7 8 9 9 7 8 8 7 7 8 8 9 10 11 11 10 10 10 11 12 12 13 14 14 15 16 16 16 15 14 12 10 9 8 8 7 6 6 6 5 5 5 4 5 6 7 9 14 17 19 20 20 20 21 22 23 23
7 7 7 4 3 8 11 9 9 8 7 7 7 8 8 9 10 11 12 13 14 14 14 13 13 13 13 14 15 16 17 18 19 19 19 19 18 16 15 14 13 12 11 10 9 8 8 7 6 6 6 6 7 9 13 16 18 20 21 21 22 23 24
6 6 5 4 4 8 10 9 8 8 8 8 9 10 11 11 12 13 14 14 15 15 16 16 15 15 16 16 16 18 19 20 20 20 21 20 20 19 18 18 18 17 16 16 15 13 11 10 9 8 7 7 7 8 9 11 13 15 17 20 21 21 22
5 4 3 4 4 5 9 10 9 8 7 7 7 9 12 14 14 15 15 15 15 15 16 16 16 15 16 17 19 19 19 20 21 22 22 23 23 22 21 20 20 20 20 19 19 18 16 15 13 12 10 9 7 7 8 9 10 10 12 16 20 20 21
4 3 3 4 4 4 8 9 8 7 7 7 6 7 11 14 13 13 13 13 14 15 16 17 17 17 17 18 20 20 19 20 21 22 22 24 25 25 25 24 23 22 21 21 21 21 20 19 17 16 14 13 11 10 9 9 10 10 10 13 17 20 21
5 4 4 5 5 6 7 7 6 7 7 6 5 5 7 8 7 7 8 9 11 14 15 17 18 19 19 20 21 21 21 21 22 22 23 23 25 26 27 28 28 26 25 24 23 23 22 21 20 19 18 17 15 14 12 11 10 11 13 13 13 17 21
7 6 6 7 7 7 9 8 8 7 7 6 5 5 6 7 7 8 10 11 13 15 17 18 20 21 22 24 23 23 24 24 24 24 24 24 25 25 27 28 30 30 29 28 27 26 25 24 23 23 21 21 19 18 17 16 13 13 15 15 13 13 17
9 8 7 8 9 9 11 11 9 8 8 7 7 8 10 11 12 13 15 16 18 19 20 22 23 24 25 27 27 27 28 28 28 27 27 27 26 26 27 28 30 31 31 31 30 29 29 29 28 27 26 25 24 23 22 20 18 16 16 17 15 13 13
9 8 7 6 6 6 8 8 7 7 8 8 9 11 13 14 15 16 18 18 19 20 21 23 24 25 26 28 29 30 30 31 32 32 32 31 31 30 30 30 31 32 33 32 32 31 31 31 31 32 31 30 28 27 25 24 23 21 19 18 17 15 14
8 8 7 5 4 5 6 5 6 8 9 10 11 13 14 16 16 17 18 19 20 21 22 23 24 26 27 29 30 31 32 32 33 34 35 35 35 35 34 32 33 34 35 34 33 32 32 32 32 33 34 34 33 31 30 28 27 25 24 22 19 17 16
11 10 10 10 9 9 10 10 10 11 11 12 13 14 16 17 18 19 20 20 21 22 23 24 25 26 27 29 30 31 32 33 34 35 36 37 38 39 38 37 35 36 37 36 34 33 33 33 33 33 33 35 35 34 33 33 31 29 28 27 24 20 18
13 13 13 14 14 13 13 13 13 13 13 14 15 16 17 18 20 21 22 22 23 24 25 26 27 27 28 29 30 31 32 33 34 36 37 38 39 40 41 41 40 39 39 39 37 35 33 33 34 34 33 34 35 35 35 35 35 33 32 30 29 26 22
16 13 11 11 11 12 13 14 14 14 14 15 17 18 19 20 22 23 24 24 25 25 26 27 28 28 28 29 30 31 32 33 34 36 37 39 40 41 41 42 42 42 42 42 40 38 35 33 34 35 34 34 34 35 35 36 37 37 36 33 31 30 29
18 15 13 13 13 13 14 16 16 16 16 17 18 19 21 22 22 23 25 25 26 26 27 27 28 28 28 29 30 31 32 33 34 35 36 38 40 41 42 43 43 44 44 44 43 42 38 35 34 36 35 34 34 34 35 36 37 38 38 37 36 34 33
20 18 16 15 15 16 18 18 17 17 17 18 19 20 21 22 22 24 25 26 27 28 28 28 29 29 29 29 30 31 31 32 33 34 35 37 39 40 42 43 44 45 45 45 44 44 42 38 36 37 36 34 34 34 35 36 38 39 39 40 39 38 36
22 19 15 14 15 16 17 16 16 17 18 19 20 21 22 22 23 24 26 27 28 29 29 29 30 31 31 31 31 32 32 32 33 33 34 35 37 38 40 42 44 45 45 45 45 45 43 40 38 38 37 35 35 35 35 35 38 39 40 41 41 40 40
24 21 16 15 17 17 15 16 19 19 19 20 20 21 21 22 23 24 26 28 29 29 30 31 31 32 33 33 33 34 34 34 34 34 34 35 36 37 38 40 42 44 45 46 46 45 44 42 41 40 39 37 35 35 36 36 37 38 40 41 42 42 42
25 23 19 18 19 17 17 19 20 19 19 20 21 21 21 22 24 25 26 27 28 29 30 31 32 34 35 35 35 35 36 36 35 35 35 35 36 37 38 39 41 42 44 46 46 46 45 44 43 42 41 39 36 35 36 37 38 38 38 40 42 42 42
21 21 20 20 19 18 19 19 19 19 20 21 22 22 22 23 24 23 24 25 26 28 29 31 32 34 35 36 36 36 36 36 36 36 37 36 36 37 39 40 41 43 44 45 46 47 47 45 44 44 43 41 38 36 37 39 41 40 39 38 40 41 41

ECMWFFLT2_700_spd_072.txt.gz
Wind_Speed
17 23 24 23 17 13 17 22 22 18 13 10 9 10 14 15 10 11 14 12 13 14 9 6 5 6 5 2 1 2 1 2 8 14 16 16 16 14 14 15 16 18 21 20 17 17 18 18 19 20 22 23 24 24 24 24 23 22 21 21 20 18 18
15 20 19 23 22 13 13 21 22 16 10 9 9 8 12 13 8 10 15 15 15 14 10 6 5 4 4 2 4 2 2 3 5 10 14 14 15 14 13 13 14 15 18 20 21 20 19 18 18 19 20 21 22 23 24 24 24 23 22 21 21 20 19
12 16 16 19 23 19 14 14 17 16 14 13 12 9 9 12 8 8 15 17 13 11 10 8 5 3 3 3 6 5 3 3 4 7 10 12 13 13 14 15 15 14 15 18 20 21 19 18 17 18 18 19 21 23 24 25 25 25 24 23 22 21 20
10 13 12 12 16 21 19 14 14 16 16 14 17 15 12 12 10 7 11 15 10 7 10 9 5 3 3 4 6 6 6 6 5 6 8 9 11 12 13 15 16 17 17 17 18 18 19 18 17 17 17 17 20 22 24 27 28 29 28 27 25 23 21
10 10 10 11 12 13 16 16 16 19 18 13 14 16 14 12 10 8 10 10 10 11 10 8 5 4 4 6 6 5 6 6 6 6 7 8 9 10 12 14 15 17 19 20 19 20 20 19 18 18 18 19 20 21 21 25 26 27 28 28 27 26 24
8 9 13 17 18 16 13 11 11 16 18 15 14 15 14 13 9 8 12 8 10 14 12 8 5 5 5 6 5 4 5 4 5 5 6 7 8 9 11 12 14 15 17 18 19 20 21 21 21 20 19 20 20 19 20 22 23 24 27 28 27 27 27
9 11 13 15 19 21 18 13 13 15 13 13 14 10 13 17 9 6 11 10 10 15 14 9 6 7 7 7 6 4 3 2 3 3 4 5 7 8 9 11 13 14 15 17 20 22 24 25 25 23 21 21 21 20 19 19 20 21 24 25 27 28 28
8 9 10 11 14 16 12 11 17 18 12 14 16 7 6 17 13 9 11 8 9 15 13 8 7 8 7 7 7 6 5 4 2 1 1 2 4 7 9 10 12 14 16 17 19 23 25 26 27 27 26 25 23 22 20 19 21 21 21 23 26 28 28
9 6 6 8 10 10 7 8 16 19 17 20 22 11 7 13 12 12 12 6 12 17 13 10 9 10 8 8 8 7 7 7 5 4 3 2 1 3 6 9 11 13 16 17 19 21 22 23 26 29 30 27 25 23 21 21 23 22 20 21 24 26 28
8 6 5 8 10 8 6 8 13 17 18 19 18 13 13 13 10 9 8 9 19 18 14 13 11 10 10 10 10 9 9 8 7 6 5 4 3 1 2 5 9 12 14 17 18 20 21 21 23 26 28 27 27 27 24 22 24 24 22 22 23 25 27
1 4 6 13 11 7 6 6 8 12 17 17 13 12 13 12 9 5 5 15 24 20 16 15 13 12 12 11 12 11 10 8 7 6 5 4 2 2 2 3 5 8 11 15 17 18 19 20 22 23 23 24 27 30 29 25 25 26 26 25 25 27 28
2 3 5 12 10 8 7 6 5 8 13 12 8 9 10 9 8 7 10 18 24 22 19 16 14 13 14 14 14 12 10 8 7 6 5 4 3 3 4 4 3 4 6 10 13 16 17 17 19 19 20 22 26 29 30 29 27 27 28 28 28 29 30
5 2 4 7 9 9 8 6 6 7 9 8 6 8 12 11 9 10 17 20 20 21 19 16 15 15 16 16 15 13 11 10 9 8 6 5 3 2 2 3 2 2 3 4 7 10 13 14 16 17 17 19 22 24 26 28 29 28 29 28 27 27 30
6 7 6 7 9 8 6 7 8 7 7 8 7 8 12 11 9 14 20 20 18 18 15 14 17 20 19 18 16 14 12 10 10 9 8 7 5 4 2 1 1 1 2 2 4 7 9 10 13 16 17 17 18 19 22 25 28 30 30 29 26 25 28
6 8 7 7 8 7 5 6 9 9 8 7 7 8 9 9 11 15 20 20 18 15 12 14 20 22 20 19 17 15 13 11 10 9 9 8 7 6 5 4 4 3 2 2 3 5 6 8 9 11 14 17 17 17 19 22 25 29 31 31 28 27 28
5 7 6 5 7 7 5 5 7 8 8 8 9 10 10 10 12 16 18 16 16 14 13 15 19 19 18 18 18 17 15 13 11 10 9 8 7 7 6 5 5 4 3 3 3 3 5 7 9 9 11 13 15 16 18 19 22 25 29 31 30 29 30
5 7 6 4 6 5 5 9 11 10 11 11 11 13 14 13 13 13 12 13 16 16 15 14 13 13 14 16 17 17 16 14 13 11 10 9 8 7 6 5 5 4 4 4 4 4 5 6 8 9 11 13 15 15 15 17 19 22 26 30 32 33 32
5 6 5 5 6 5 7 13 15 13 12 12 10 11 15 17 16 15 15 17 18 16 14 13 10 9 13 15 15 16 17 16 15 14 12 11 9 8 7 6 5 4 4 3 3 3 4 5 7 8 9 12 13 14 14 15 16 18 22 26 31 32 32
3 6 7 6 5 6 8 11 15 14 14 15 14 13 16 19 18 18 19 20 20 18 15 13 12 13 14 16 16 15 16 17 17 17 15 14 12 10 9 8 7 6 5 4 3 3 3 3 4 5 6 7 8 10 12 14 15 16 18 20 24 27 28
4 7 9 5 3 5 7 8 10 11 12 14 13 10 13 17 15 13 14 15 17 20 19 17 17 17 15 16 17 18 18 18 19 20 19 18 17 15 13 12 11 10 9 7 6 5 4 4 4 5 5 5 6 6 8 10 13 15 16 18 20 22 24
5 7 8 6 2 4 8 9 10 12 12 13 12 8 10 16 15 11 10 10 12 15 17 18 18 17 17 17 18 20 21 20 20 20 21 21 21 21 20 18 17 16 15 14 12 10 9 7 7 7 7 6 6 6 7 8 10 13 15 17 19 20 22
6 6 6 6 5 5 8 11 12 13 13 13 13 9 9 14 15 13 11 11 12 12 14 16 16 16 15 13 16 22 24 23 22 22 22 22 23 23 23 23 23 22 21 20 19 17 16 14 12 11 10 9 8 8 8 9 9 11 13 15 18 20 21
7 7 7 7 5 4 8 11 12 13 13 11 10 9 10 13 14 14 14 14 13 11 11 14 15 14 10 7 14 24 25 23 24 25 24 24 24 24 24 23 24 24 24 24 23 22 21 20 18 16 15 14 13 11 10 10 11 11 12 13 15 18 19
7 7 7 6 3 4 9 12 11 12 12 10 8 7 10 13 14 15 15 13 11 10 11 14 16 15 12 12 19 25 23 21 23 25 25 26 26 25 26 25 25 24 25 25 25 25 25 24 22 21 19 18 17 16 15 14 13 13 13 13 14 16 18
8 8 9 7 4 6 11 11 11 11 9 8 7 7 9 11 11 12 13 11 9 10 12 14 14 15 17 20 23 24 22 22 24 24 25 27 26 27 27 27 26 25 25 25 26 26 27 26 26 25 23 22 20 19 19 19 17 16 15 15 15 16 18
8 8 9 7 6 9 13 13 14 11 7 5 8 11 12 11 9 9 11 10 10 12 13 14 15 16 17 20 22 23 23 24 24 24 26 27 27 28 29 29 29 28 27 26 26 26 28 28 28 28 27 26 24 23 22 22 22 20 19 18 18 18 18
8 8 8 7 6 9 13 14 15 13 8 8 11 14 13 10 9 10 10 11 12 13 14 16 17 18 19 20 21 23 23 23 23 24 25 27 28 29 30 31 32 32 32 30 28 27 28 29 30 30 30 29 28 27 26 26 25 25 23 22 21 20 20
9 7 7 8 8 8 8 9 11 12 12 13 13 12 10 10 9 10 10 11 12 13 14 16 17 17 19 19 21 22 22 22 23 23 24 26 27 28 30 31 33 35 36 35 32 30 30 31 32 32 32 31 31 30 30 29 29 28 28 26 25 24 23
11 9 9 11 11 8 7 8 9 11 13 13 12 11 10 10 10 10 11 12 13 14 15 16 17 18 19 19 20 21 21 21 22 22 23 25 26 27 29 31 32 34 36 37 36 34 32 32 33 34 34 34 34 33 33 33 33 32 31 30 29 28 27
14 14 15 16 14 12 13 14 14 15 15 14 14 13 12 12 12 12 13 14 15 16 16 18 19 20 21 21 22 22 23 23 23 23 23 24 25 27 28 30 31 33 35 36 37 36 34 34 35 35 36 37 37 35 34 35 35 35 35 34 33 32 31
13 11 13 15 14 14 16 16 17 17 17 16 16 15 15 15 15 15 15 16 17 18 18 19 20 20 22 23 23 24 25 25 26 26 26 26 26 27 28 29 31 33 34 35 37 37 36 35 35 37 37 37 38 37 37 36 37 38 38 37 35 34 34
15 13 13 14 14 15 16 15 16 16 16 17 17 17 17 17 17 17 17 18 18 18 19 19 20 21 22 23 24 24 25 26 27 28 28 28 28 29 29 30 31 32 34 35 36 38 38 37 37 38 39 38 38 38 38 38 38 39 40 40 38 37 36
16 15 15 15 16 16 16 17 18 19 19 19 20 19 18 18 18 18 19 19 19 19 19 20 21 22 22 23 24 25 26 27 28 29 30 30 31 31 31 31 31 32 33 34 35 37 38 39 39 39 40 40 39 39 39 38 38 39 40 41 40 40 38
16 15 15 16 16 15 13 14 18 21 21 21 20 19 19 19 19 19 19 19 19 20 20 21 22 23 24 24 25 26 27 28 29 30 31 31 32 32 33 33 33 33 33 34 35 36 37 38 40 41 41 41 41 40 40 39 39 39 40 40 41 41 40
16 15 15 16 17 15 14 14 15 16 19 20 19 19 20 20 20 19 20 20 20 21 22 22 22 23 24 24 25 27 29 30 31 32 33 33 33 34 35 35 35 35 35 35 35 36 36 37 39 41 42 42 42 42 42 41 41 40 40 40 40 41 41
19 19 19 20 19 17 18 18 15 15 19 20 19 19 21 21 20 20 20 20 21 22 23 22 22 23 24 26 28 30 31 32 33 33 34 35 35 36 36 37 37 37 37 37 37 37 36 37 38 39 41 42 43 43 43 43 43 42 41 40 40 40 41
23 22 22 24 22 20 21 21 20 20 22 21 19 21 22 21 20 20 21 21 22 23 23 23 23 25 28 30 32 34 35 36 36 36 36 36 36 37 37 37 38 39 39 40 40 39 38 38 38 38 39 41 42 43 44 45 45 44 44 42 40 39 40

ECMWFFLT2_700_spd_075.txt.gz
Wind_Speed
16 22 20 17 14 13 16 22 23 20 18 17 16 14 16 16 12 13 16 11 15 15 12 11 12 11 10 8 8 9 8 7 8 10 13 12 11 16 19 18 18 19 21 24 25 25 23 23 23 25 25 24 25 24 23 23 23 23 22 21 20 18 17
14 17 17 19 20 14 11 19 22 18 18 18 15 11 13 15 9 13 21 18 16 15 12 13 14 12 10 8 8 7 7 6 5 8 16 15 9 13 18 16 18 21 22 22 22 21 22 24 24 25 25 25 26 25 24 24 25 25 24 23 22 21 19
13 16 16 18 23 19 13 14 15 17 21 18 14 12 10 12 10 10 18 19 16 14 15 17 16 12 10 7 6 7 6 4 5 8 16 16 9 12 15 13 16 19 19 19 19 18 21 24 24 25 25 26 27 27 26 27 27 26 25 23 23 22 20
11 15 18 19 23 23 17 12 12 19 22 18 17 18 13 12 12 8 12 15 9 8 13 17 15 12 9 6 6 7 5 5 7 9 15 19 17 15 15 13 16 19 18 20 22 20 20 22 22 23 24 25 26 28 28 28 27 26 25 23 23 23 22
12 15 18 16 16 21 22 18 15 18 19 18 19 22 20 15 12 8 10 10 8 12 15 14 13 11 7 6 8 9 8 7 7 9 13 17 19 21 20 18 20 22 21 22 24 23 22 23 23 23 23 23 26 28 28 26 25 25 23 22 23 23 22
13 13 18 17 9 11 18 20 20 19 20 19 17 18 22 20 16 13 9 7 9 14 15 12 10 9 7 7 8 11 12 10 8 8 10 13 16 21 25 25 25 26 26 25 25 24 25 26 26 24 22 23 25 26 25 24 24 25 23 23 24 23 23
8 9 19 22 13 11 13 12 15 18 22 24 20 16 20 22 22 16 6 10 10 14 13 10 10 9 8 8 8 12 13 12 11 10 9 10 12 14 19 23 24 25 26 25 24 23 23 25 25 25 24 25 24 23 23 23 25 25 24 24 24 24 24
4 3 12 19 16 15 17 13 10 13 18 22 21 16 14 18 23 18 8 9 10 14 13 10 11 10 8 8 8 11 13 13 12 11 10 10 10 10 12 15 18 21 23 24 22 21 22 23 23 23 26 27 25 23 23 24 25 25 25 25 24 24 25
7 5 9 15 16 16 19 17 13 13 13 13 14 12 10 12 19 19 10 7 12 16 14 11 11 11 9 8 8 9 12 12 12 11 11 10 10 9 9 10 14 19 23 24 22 22 23 23 23 22 25 27 26 24 24 23 21 19 21 24 24 25 26
7 5 5 10 15 17 18 16 12 14 15 12 12 13 12 12 15 12 2 13 19 18 16 14 14 12 11 10 8 9 10 10 11 10 10 10 9 9 9 8 10 15 21 24 23 23 25 26 25 24 23 23 22 23 23 22 19 16 18 22 23 24 25
2 3 2 3 10 17 18 13 10 12 15 13 14 17 16 14 14 7 6 16 22 21 19 19 16 13 13 11 9 9 8 8 9 9 9 8 8 8 8 8 7 10 16 22 24 24 24 26 26 25 25 23 21 21 22 22 20 20 21 22 23 23 24
3 5 3 3 5 11 12 9 9 8 10 13 17 20 15 12 13 8 12 17 22 26 23 20 18 16 14 12 10 9 8 8 9 9 8 8 7 7 7 7 7 7 10 16 21 23 24 24 24 25 26 26 23 23 23 22 21 22 22 22 23 23 24
1 1 0 1 2 6 6 5 5 5 6 11 16 16 12 12 13 10 17 18 21 27 25 20 18 16 14 13 10 9 10 10 11 10 8 7 6 6 6 7 7 7 8 10 13 17 20 22 22 23 24 26 26 25 25 24 23 23 23 23 24 24 24
3 2 2 2 1 4 6 5 4 4 4 6 8 8 8 10 10 12 20 20 20 24 23 20 17 15 14 12 9 9 12 13 13 11 9 8 6 5 5 5 5 6 7 8 9 11 14 17 20 21 22 24 26 27 27 27 27 25 25 26 26 26 25
6 4 4 5 4 4 6 7 5 5 5 5 5 5 5 8 10 14 20 22 23 23 21 18 16 13 12 12 11 13 16 17 15 13 11 10 8 7 6 4 4 4 5 7 8 8 10 13 16 18 20 22 24 26 27 29 30 30 29 28 27 28 28
9 7 5 5 5 6 9 9 9 9 8 7 6 6 6 9 14 18 22 24 25 24 21 17 15 13 11 12 14 17 19 18 17 16 13 12 10 9 8 6 5 5 6 6 7 7 9 11 12 14 16 19 22 23 24 27 29 30 30 31 31 31 30
10 8 6 6 6 8 10 11 10 10 9 8 7 6 5 7 13 17 20 23 24 22 18 16 15 14 12 12 15 19 19 18 18 17 15 14 13 12 10 9 8 7 6 6 6 7 8 9 10 11 12 14 17 20 22 25 26 28 29 31 34 33 32
10 8 6 7 8 8 7 10 12 10 9 8 7 7 7 7 9 13 16 20 21 17 15 15 15 16 15 13 16 20 21 20 18 17 16 15 14 13 12 11 10 9 7 7 6 6 6 7 8 10 11 12 13 16 19 22 25 27 28 30 34 35 34
10 7 8 8 9 7 7 12 17 15 11 10 10 9 8 8 9 12 15 19 19 15 14 16 19 20 16 14 17 22 23 21 19 18 18 17 15 14 13 12 11 10 9 8 7 6 6 6 7 8 9 10 11 13 15 18 21 24 25 28 31 34 35
10 8 10 8 5 7 8 11 18 18 13 12 12 10 8 9 10 12 16 17 15 15 15 18 24 21 12 10 18 23 23 22 21 20 18 18 17 16 14 14 13 11 10 9 8 7 7 6 6 6 6 7 8 10 11 13 17 20 23 26 29 32 35
11 11 12 10 6 7 9 10 13 14 12 12 11 8 10 13 12 12 15 16 15 17 17 18 20 17 10 11 18 23 23 21 21 21 20 19 19 18 17 16 15 14 13 11 10 9 8 7 6 6 6 6 6 7 8 10 12 15 18 22 26 29 31
10 12 11 11 8 8 9 11 12 13 14 15 14 11 13 16 15 13 14 15 16 17 16 13 13 13 11 11 15 20 23 24 23 22 22 22 21 20 19 18 18 17 15 14 13 12 11 10 9 8 8 7 7 7 8 9 10 11 12 15 19 21 22
10 11 12 12 9 6 11 12 10 12 14 14 15 14 14 17 18 17 15 14 15 16 14 12 12 11 9 11 14 19 22 25 27 25 25 25 24 23 23 23 22 21 19 19 18 17 17 16 14 13 12 11 11 11 10 11 11 11 11 12 15 16 15
11 10 12 12 7 7 13 12 7 8 10 11 11 11 13 15 18 18 17 14 14 15 15 15 13 10 9 15 20 21 22 25 28 27 26 27 27 27 27 27 26 25 25 25 24 24 24 22 20 20 19 17 16 15 14 15 15 15 14 14 15 16 15
13 12 13 11 4 7 10 9 7 9 9 12 10 9 12 17 18 18 17 13 13 16 18 16 12 9 14 22 25 24 26 27 28 25 23 25 26 27 28 28 27 28 29 29 28 28 28 27 26 26 24 23 22 20 19 19 19 18 18 17 17 17 17
12 11 13 12 6 8 8 7 7 8 8 10 10 10 12 16 16 17 16 13 13 16 18 18 16 14 20 27 26 26 27 27 25 23 23 24 25 25 27 27 27 27 28 28 28 29 29 29 29 29 28 28 26 25 24 24 23 23 22 21 21 20 19
12 11 12 11 7 8 8 7 6 7 9 10 11 10 11 12 12 13 16 17 16 15 14 16 20 20 21 24 24 26 27 26 25 24 24 25 25 25 26 27 28 29 28 27 27 28 28 29 30 30 30 30 30 29 28 28 28 27 26 25 24 24 23
11 11 10 10 9 7 7 4 4 8 14 16 12 7 8 12 12 11 14 16 16 14 12 13 16 18 18 19 21 24 24 24 25 25 24 24 24 24 25 26 28 29 29 28 28 27 28 30 30 31 31 32 31 31 31 31 31 31 30 29 28 27 26
10 10 8 7 8 8 8 7 8 12 16 19 16 11 10 13 14 13 14 15 14 14 13 14 15 16 17 18 20 21 21 21 22 24 23 23 24 24 25 26 27 27 28 28 28 27 27 28 30 31 32 32 33 33 33 33 33 33 33 33 32 31 30
11 13 14 13 11 10 10 11 13 14 14 15 17 16 14 15 15 14 14 14 13 13 13 14 14 16 17 17 19 20 19 19 21 22 23 22 23 24 25 26 27 27 27 27 27 27 27 27 29 30 31 33 33 33 33 34 35 35 36 36 35 34 33
10 10 12 14 13 13 12 13 16 17 16 15 16 16 16 17 18 16 15 14 14 14 14 14 14 16 16 17 18 19 19 19 20 21 22 23 23 24 25 26 27 28 28 28 28 28 28 28 29 30 31 33 34 34 34 35 35 36 37 38 38 38 37
14 11 9 11 13 13 14 15 15 16 17 18 18 18 18 19 19 18 17 16 15 15 15 15 14 15 16 16 17 17 18 18 18 20 21 22 22 23 24 25 27 28 29 29 29 29 29 29 30 31 31 32 33 34 35 35 36 37 38 39 39 40 39
15 15 14 14 15 15 16 17 16 15 16 17 16 17 19 19 19 19 18 17 17 16 15 15 15 15 16 16 17 17 18 19 19 19 20 20 21 21 22 24 25 27 28 29 30 31 31 31 31 31 32 32 32 33 34 35 36 37 38 39 40 40 40
14 13 13 15 17 16 15 15 15 14 15 15 13 15 16 16 17 19 19 18 17 16 16 16 16 16 16 17 17 17 17 18 19 19 19 20 21 21 22 24 25 26 27 28 30 31 31 32 32 33 33 33 33 33 34 35 36 37 38 39 40 40 40
17 16 15 16 17 15 14 15 15 14 13 13 15 17 16 14 13 15 17 18 18 17 17 17 17 17 17 17 16 16 17 19 20 21 21 23 23 23 23 25 26 26 27 28 30 31 32 33 33 34 34 34 34 34 35 36 36 37 38 39 40 40 40
22 21 20 20 19 16 17 19 18 15 13 13 14 15 15 14 12 11 13 15 16 17 17 17 17 18 17 17 17 18 20 22 24 26 26 27 28 28 28 28 28 29 29 29 30 31 32 33 34 35 35 36 36 36 36 37 38 38 39 40 40 40 40
28 25 22 23 23 22 23 23 20 18 18 16 14 13 13 14 13 11 11 12 13 15 17 18 19 19 19 19 20 21 23 25 28 29 30 31 31 32 32 31 32 32 32 33 33 33 33 33 34 35 36 36 37 38 38 39 39 40 40 41 41 41 41